Regional Weather Roundup
Issued by NWS Charleston, SC

Current Version | Previous Version | Text Only | Print | Product List | Glossary Off
Versions: 1 2 3 4 5 6 7 8 9 10 11 12 13 14 15 16 17 18 19 20 21 22 23 24 25 26 27 28 29 30 31 32 33 34 35 36 37 38 39 40 41 42 43 44 45 46 47 48 49 50

000
ASUS42 KCHS 012112
RWRCHS

REGIONAL WEATHER ROUNDUP
NATIONAL WEATHER SERVICE CHARLESTON SC
500 PM EDT SAT AUG 01 2015

NOTE: "FAIR" INDICATES FEW OR NO CLOUDS BELOW 12,000 FEET WITH NO
SIGNIFICANT WEATHER AND/OR OBSTRUCTIONS TO VISIBILITY.

NOT ALL STATIONS ARE QUALITY CONTROLLED BY THE NATIONAL
WEATHER SERVICE. USE DATA WITH CAUTION...ESPECIALLY
DEWPOINT OBSERVATIONS.

SCZ027-030-031-034>040-042>050-012200-
...SOUTHEAST SOUTH CAROLINA...

CITY           SKY/WX    TMP DP  RH WIND       PRES   REMARKS
N CHARLESTON   MOSUNNY   85  74  69 SE5       29.89F HX  92
WATERFRONT PRK   N/A     81  76  85 VRB3      29.88F
MOUNT PLEASANT FAIR      84  75  74 S6        29.90S HX  92
JOHNS ISLAND   MOCLDY    81  77  89 S6        29.90F
PINOPOLIS      NOT AVBL
MONCKS CORNER  FAIR      88  73  62 S7        29.89F HX  96
SUMMERVILLE    FAIR      88  75  66 S3        29.90F HX  97
BEAUFORT MCAS  CLOUDY    77  74  90 NW3       29.91S
BEAUFORT ARPT  MOCLDY    79  79 100 CALM      29.90R FOG
HILTON HEAD IS LGT RAIN  81  73  78 SE5       29.91F
WALTERBORO     NOT AVBL
ALLENDALE      MOCLDY    84  73  70 SE12      29.88R HX  91

...SOUTHERN MIDLANDS AND PEE DEE...

CITY           SKY/WX    TMP DP  RH WIND       PRES   REMARKS
GEORGETOWN     NOT AVBL
KINGSTREE      NOT AVBL
ORANGEBURG     PTSUNNY   89  73  59 S13G21    29.88S HX  97
BARNWELL       FAIR      97  68  38 NE13      29.87F HX 101
AIKEN          MOCLDY    91  57  31 E5        29.92F HX  90
MANNING        RAIN      88  72  58 SE7       29.88S HX  94
COLUMBIA       PTSUNNY   96  60  30 NE6       29.87S HX  96
SUMTER         CLOUDY    98  61  29 NE6       29.85F HX  98
FLORENCE       SUNNY     93  61  34 SE7       29.87F HX  93
MYRTLE BEACH   MOSUNNY   88  73  62 S12       29.91F HX  96
N MYRTLE BEACH SUNNY     85  76  74 S13       29.89F HX  94

$$

GAZ063-065-086>088-099>101-113>116-118-119-134>141-150-012200-
...SOUTHEAST GEORGIA...

CITY           SKY/WX    TMP DP  RH WIND       PRES   REMARKS
SAVANNAH ARPT  TSTM      78  75  90 NE9       29.90R FOG
HUNTER AAF     MOSUNNY   86  78  75 SE12      29.86S HX  98
FORT STEWART   PTSUNNY   88  75  66 SE8       29.80R HX  97
STATESBORO     MOSUNNY   77  77 100 CALM      29.89S
SYLVANIA       MOCLDY    80  77  89 E12G17    29.91R
CLAXTON        NOT AVBL

...CSRA...CENTRAL AND FAR SOUTHEAST GEORGIA...

CITY           SKY/WX    TMP DP  RH WIND       PRES   REMARKS
THOMSON        MOSUNNY   91  69  48 CALM      29.94F HX  96
AUGUSTA-BUSH   PTSUNNY   90  74  59 W13       29.86F HX  99
AUGUSTA-DANIEL PTSUNNY   90  70  51 SW8G16    29.89F HX  95
SWAINSBORO     MOCLDY    90  77  66 N6        29.88F HX 102
VIDALIA        MOSUNNY   90  72  55 SE6       29.85F HX  96
EASTMAN        LGT RAIN  91  75  59 NE7       29.89R HX 102
HAZLEHURST     FAIR      91  74  56 E8        29.85S HX 100
ALMA           SUNNY     91  73  55 E6        29.85F HX  99
WAYCROSS       SUNNY     91  79  68 SE8       29.85F HX 107
JESUP          FAIR      91  79  66 S6        29.86F HX 107
BAXLEY         FAIR      90  73  58 E5        29.85F HX  98
BRUNSWICK      CLOUDY    88  75  66 SE10      29.88S HX  97
SAINT SIMONS   MOSUNNY   83  75  77 SE12      29.88S HX  90

$$

SCZ027-028-034-036>038-045-046-048>050-GAZ119-141-012200-
...LAKE AND SUPPLEMENTAL COASTAL OBSERVATIONS...

STATION/POSITION TIME  TEMP    WIND        PRES    WAVE   SWELL
                       AIR SEA DIR/SP/G            HT/PER HT/PER/DIR
                 (UTC) (F)     (DEG/KT/KT) (MB)    (FT/S) (FT/S/D)
UPR LAKE MARION  NOT AVBL
WINYAH BAY       NOT AVBL
LAKE MURRAY      2000   95     170/  1/  3 1011.2F
ACE BASIN NERRS  NOT AVBL
FORT PULASKI     2000   84 87  100/ 10/ 15 1012.8F
SAPELO ISLAND    2000   89     150/  8     1012.0S

$$

ANZ835-935-AMZ111-154-330-350-352-354-370-450-454-472-012200-
...C-MAN AND BUOY OBSERVATIONS...

STATION/POSITION TIME  TEMP    WIND        PRES    WAVE   SWELL
                       AIR SEA DIR/SP/G            HT/PER HT/PER/DIR
                 (UTC) (F)     (DEG/KT/KT) (MB)    (FT/S) (FT/S/D)
BUOY 41004       2050   80 84  130/  6/  8 1012.7S   4/ 7   3/ 7
BUOY 41008       2050   81 85  140/ 10/ 12 1012.6F   3/ 6   2/160/ 6
FOLLY BEACH CMAN 2000   80     200/  3/  4 1013.0F
CAPERS NEARSHORE 2008   80     190/  6/  8 1012.9F
FRIPP NEARSHORE  2000   81     160/ 10/ 12 1012.4F


STATION/POSITION TIME  TEMP    WIND        PRES    WAVE   SWELL
                       AIR SEA DIR/SP/G            HT/PER HT/PER/DIR
                 (UTC) (F)     (DEG/KT/KT) (MB)    (FT/S) (FT/S/D)
5E ST. MARYS GA  2021      85                N/A     3/ 5
FRYING PAN BUOY  2050   81 83  200/ 10/ 12 1013.3F   4/ 7   3/160/ 7
BUOY 41025       2050   78 85  230/ 17/ 21 1012.3F   3/ 7   2/200/ 7
CAPE LOOKOUT NC  2000   82     210/  8/ 11 1012.2F
BUOY 41002       2050   83 81  230/ 14/ 16 1015.5F   6/ 7   5/240/ 7
BUOY 41010       2020   83 84  170/ 14/ 16 1015.0F
ST AUGUSTINE FL  2100   79 82  230/  9/ 12 1013.7S


$$


USA.gov is the U.S. government's official web portal to all federal, state and local government web resources and services.